Regional Weather Roundup
Issued by NWS San Angelo, TX

Home | Current Version | Previous Version | Text Only | Print | Product List | Glossary On
Versions: 1 2 3 4 5 6 7 8 9 10 11 12 13 14 15 16 17 18 19 20 21 22 23 24 25 26 27 28 29 30 31 32 33 34 35 36 37 38 39 40 41 42 43 44 45 46 47 48 49 50
000
ASUS44 KSJT 301102
RWRSJT
WEST CENTRAL TEXAS REGIONAL WEATHER ROUNDUP
NATIONAL WEATHER SERVICE SAN ANGELO TX
600 AM CDT TUE JUN 30 2015

NOTE: "FAIR" INDICATES FEW OR NO CLOUDS BELOW 12,000 FEET WITH NO
SIGNIFICANT WEATHER AND/OR OBSTRUCTIONS TO VISIBILITY.

TXZ049-054-064>066-071>073-076>078-098-099-113-114-127-128-139-140-
154-155-168>170-301200
...LOCATIONS ACROSS WEST CENTRAL TEXAS...

CITY           SKY/WX    TMP DP  RH WIND       PRES   REMARKS
SAN ANGELO     CLOUDY    71  66  84 N9        30.08S
ABILENE        CLOUDY    70  64  81 N3        30.05R
DYESS AFB      CLOUDY    69  64  86 SE10      30.02R
JUNCTION       CLOUDY    74  70  87 CALM      30.06S
SWEETWATER     CLOUDY    66  66 100 NW7       30.10F
BROWNWOOD      NOT AVBL
COLEMAN        NOT AVBL
SONORA         NOT AVBL
OZONA          NOT AVBL
BRADY          NOT AVBL
$$

TEXAS PANHANDLE/OKLAHOMA PANHANDLE

CITY           SKY/WX    TMP DP  RH WIND       PRES   REMARKS
AMARILLO       CLEAR     62  59  90 S10       30.15R
BORGER         CLEAR     65  60  84 SW7       30.11R
CANADIAN         N/A     61  60  96 CALM      30.06R
DALHART        CLEAR     63  55  75 NW8       30.16R
DUMAS          SUNNY     61  57  88 W6        30.14S
GUYMON         NOT AVBL
HEREFORD       NOT AVBL
PAMPA          NOT AVBL
PERRYTON       NOT AVBL
$$

SOUTHERN PANHANDLE/SOUTH PLAINS/ROLLING PLAINS

CITY           SKY/WX    TMP DP  RH WIND       PRES   REMARKS
LUBBOCK        CLOUDY    64  60  87 S8        30.15R
SNYDER         NOT AVBL
CHILDRESS      MOCLDY    67  63  87 NW6       30.07R
SEMINOLE       NOT AVBL
$$

PERMIAN BASIN

CITY           SKY/WX    TMP DP  RH WIND       PRES   REMARKS
MIDLAND        RAIN      65  62  90 E14       30.17S
ODESSA         TSTM      65  62  90 E22G29    30.17F
WINK           CLOUDY    69  60  73 E26G37    30.10R THUNDER
$$

FAR WEST/SOUTHWEST MOUNTAINS/TRANS PECOS

CITY           SKY/WX    TMP DP  RH WIND       PRES   REMARKS
ALPINE         PTSUNNY   67  62  84 W3        30.19S
DRYDEN           N/A     72  66  81 NW6       30.01R
EL PASO        PTCLDY    73  59  61 N7        30.08S
FORT STOCKTON  PTCLDY    70  64  81 SE6       30.07R
GUADALUPE PASS CLEAR     66  52  60 NE20      30.22R
MARFA          MOCLDY   N/A N/A N/A N5        30.18R
PECOS          NOT AVBL
$$

DALLAS/FORT WORTH METROPLEX

CITY           SKY/WX    TMP DP  RH WIND       PRES   REMARKS
DFW AIRPORT    PTCLDY    73  66  78 S12       30.00R
FTW MEACHAM    PTCLDY    75  66  73 SE8       30.01R
DAL-EXECUTIVE  MOCLDY    70  66  87 S9        30.00F
GRAND PRAIRIE  PTCLDY    72  67  85 S6        30.03S
ADDISON        NOT AVBL
MESQUITE       NOT AVBL
LANCASTER      CLOUDY    68  64  87 SW10      30.01F
$$

NORTH CENTRAL TEXAS

CITY           SKY/WX    TMP DP  RH WIND       PRES   REMARKS
SHRMAN/DENISON NOT AVBL
GAINESVILLE    NOT AVBL
BRIDGEPORT     MOSUNNY   72  66  81 S6        30.03S
DENTON         CLEAR     71  63  75 SE8       30.01R
WAXAHACHIE     LGT RAIN  68  68 100 S9        30.05F
GRANBURY       NOT AVBL
$$

WESTERN NORTH TEXAS

CITY           SKY/WX    TMP DP  RH WIND       PRES   REMARKS
WICHITA FALLS  PTCLDY    68  64  87 S6        30.01R
VERNON         MOSUNNY   68  60  76 NW7       30.05R
BRECKENRIDGE   NOT AVBL
COMANCHE       CLOUDY    72  71  97 NW3       30.06R
$$

CENTRAL AND SOUTH CENTRAL TEXAS

CITY           SKY/WX    TMP DP  RH WIND       PRES   REMARKS
AUSTIN/BERGSTM PTCLDY    73  73 100 S3        30.01S
WACO           MOCLDY    77  73  87 S9        30.01R
HILLSBORO      NOT AVBL
TEMPLE         MOCLDY    73  70  88 S9        30.01R
KILLEEN-GRAY   MOCLDY    75  73  91 VRB7      30.02R
FORT HOOD      MOCLDY    75  72  91 S8        30.02R
GEORGETOWN     MOCLDY    77  73  88 S9        30.00R
LAGO VISTA     CLOUDY    76  72  87 S6        30.04R
SAN MARCOS     NOT AVBL
NEW BRAUNFELS  MOCLDY    77  75  93 SW5       30.01S
RANDOLPH AFB   MOCLDY    76  75  95 S5        30.02S
SAN ANTONIO    CLOUDY    78  73  84 S3        30.03R
STINSON        CLOUDY    78  75  90 S6        30.00R
PLEASANTON     NOT AVBL
LA GRANGE      NOT AVBL
GIDDINGS       NOT AVBL
$$

EAST TEXAS

CITY           SKY/WX    TMP DP  RH WIND       PRES   REMARKS
PARIS          CLOUDY    70  57  64 SW3       29.97R
CLARKSVILLE    NOT AVBL
TYLER          CLOUDY    78  74  87 VRB3      30.02R
LONGVIEW       MOCLDY    76  73  91 W5        30.01R
PALESTINE      PTSUNNY   76  75  96 CALM      30.04R
NACOGDOCHES    PTCLDY    72  70  94 NW3       30.02R
$$

TEXAS HILL COUNTRY AND EDWARDS PLATEAU

CITY           SKY/WX    TMP DP  RH WIND       PRES   REMARKS
LLANO          NOT AVBL
HORSESHOE BAY  FAIR      75  72  90 CALM      30.03S
KERRVILLE      MOCLDY    74  72  93 S6        30.06S
FREDERICKSBRG  NOT AVBL
ROCKSPRINGS    NOT AVBL
HONDO          CLOUDY    76  74  93 CALM      30.04R
UVALDE         CLOUDY    74  73  98 NE5       30.02R FOG
DEL RIO        CLOUDY    76  72  87 E5        29.99R
$$

SOUTHEAST TEXAS

CITY           SKY/WX    TMP DP  RH WIND       PRES   REMARKS
COLLEGE STN    PTCLDY    76  74  93 S6        30.01F
CALDWELL       NOT AVBL
CROCKETT       NOT AVBL
BRENHAM        PTCLDY    76  76  98 CALM      30.03R FOG
HUNTSVILLE     MOCLDY    76  74  93 S5        30.02F
CONROE         PTCLDY    76  73  91 SE5       30.03S
HOUSTON BUSH   MOCLDY    77  75  93 CALM      30.02F
HOUSTON HOBBY  MOCLDY    79  76  90 CALM      30.02R
PERLAND        MOCLDY    80  76  87 CALM      30.03S
WHARTON        NOT AVBL
$$

THE UPPER TEXAS COAST

CITY           SKY/WX    TMP DP  RH WIND       PRES   REMARKS
ORANGE         PTSUNNY   76  76 100 CALM      30.04S FOG
PORT ARTHUR    PTCLDY    77  76  96 CALM      30.02R
GALVESTON      CLOUDY    83  80  91 S9        30.03R THUNDER
ANGLETON       MOCLDY    79  75  87 CALM      30.02R
BAY CITY       NOT AVBL
$$

TEXAS COASTAL BEND, RIO GRANDE PLAINS DEEP SOUTH TEXAS

CITY           SKY/WX    TMP DP  RH WIND       PRES   REMARKS
VICTORIA       PTCLDY    77  76  96 SE6       30.01R
BEEVILLE       NOT AVBL
ROCKPORT       PTCLDY    83  77  82 S7        30.00R
PORT ARANSAS   SUNNY     81  78  91 SE7       29.99S
PORT LAVACA    SUNNY     75  73  94 SE6       30.00S
CORPUS CHRISTI MOCLDY    80  77  90 SE5       29.99R
KINGSVILLE NAS MOCLDY    81  81 100 SE8       29.98R
COTULLA        PTCLDY    78  75  90 SE9       29.98R
LAREDO         CLEAR     77  74  90 SE10      29.97F
BROWNSVILLE    LGT RAIN  76  70  82 SE6       29.97S
PORT ISABEL    MOCLDY    75  73  93 SW3       29.96S
HEBBRONVILLE   NOT AVBL
MCALLEN        CLOUDY    80  75  84 SE10      29.98R HAZE
WESLACO        NOT AVBL
FALFURRIAS     PTSUNNY   76  73  89 CALM      29.97S
EDINBURG       MOSUNNY   79  75  88 SE6       29.97S
$$


USA.gov is the U.S. government's official web portal to all federal, state and local government web resources and services.